Newton, NJ

8:53 PM EST on February 24, 2017 (GMT -0500)
Andover

Weather History for K12N - July, 2013

Change the Weather History Date:

Tuesday, July 16, 2013

  Actual Average (KFWN) Record (KFWN)
Temperature  
Mean Temperature 80 °F -  
Max Temperature 93 °F 85 °F 95 °F (1955)
Min Temperature 68 °F 59 °F 43 °F (1966)
Cooling Degree Days 16    
Growing Degree Days 30 (Base 50)    
Moisture  
Dew Point 69 °F    
Average Humidity 72    
Maximum Humidity 96    
Minimum Humidity 44    
Precipitation  
Precipitation 0.00 in - - ()
Sea Level Pressure  
Sea Level Pressure 30.19 in    
Wind  
Wind Speed 0 mph (North)    
Max Wind Speed 5 mph    
Max Gust Speed -    
Averages and records for this station are not official NWS values.
T = Trace of Precipitation, MM = Missing Value Source: NWS Daily Summary

Daily Weather History Graph

Daily Weather History Graph

Search for Another Location

Airport or City:

Trip Planner

Search our weather history database for the weather conditions in past years. The results will help you decide how hot, cold, wet, or windy it might be!

Date:

Astronomy

Jul. 16, 2013 Rise Set
Actual Time 5:40 AM EDT 8:28 PM EDT
Civil Twilight 5:08 AM EDT 9:01 PM EDT
Nautical Twilight 4:27 AM EDT 9:42 PM EDT
Astronomical Twilight 3:40 AM EDT 10:28 PM EDT
Moon 2:06 PM EDT (7/16) 12:10 AM EDT (7/16)
Length of Visible Light 15h 53m
Length of Day
14h 48m
First Quarter, 56% of the Moon is Illuminated
Jul 16
First Quarter
Jul 22
Full
Jul 29
Last Quarter
Aug 6
New
Aug 14
First Quarter

Hourly Weather History & Observations

Time (EDT) Temp. Heat Index Dew Point Humidity Pressure Visibility Wind Dir Wind Speed Gust Speed Precip Events Conditions
12:54 AM 72.0 °F - 70.0 °F 93% 30.18 in - Calm Calm - N/A   Unknown
1:54 AM 71.1 °F - 70.0 °F 96% 30.19 in - Calm Calm - N/A   Unknown
2:54 AM 70.0 °F - 68.0 °F 93% 30.18 in - Calm Calm - N/A   Unknown
3:54 AM 70.0 °F - 68.0 °F 93% 30.18 in - Calm Calm - N/A   Unknown
4:54 AM 69.1 °F - 66.9 °F 93% 30.19 in - Calm Calm - N/A   Unknown
5:54 AM 68.0 °F - 66.0 °F 93% 30.21 in - Calm Calm - N/A   Unknown
6:54 AM 69.1 °F - 68.0 °F 96% 30.22 in - Calm Calm - N/A   Unknown
7:54 AM 75.0 °F - 70.0 °F 84% 30.23 in - Calm Calm - N/A   Unknown
8:54 AM 79.0 °F - 68.0 °F 69% 30.23 in - NE 3.5 mph - N/A   Unknown
9:54 AM 82.9 °F 85.8 °F 68.0 °F 60% 30.22 in - Calm Calm - N/A   Unknown
10:54 AM 84.9 °F 88.2 °F 68.0 °F 57% 30.22 in - Calm Calm - N/A   Unknown
11:54 AM 89.1 °F 93.7 °F 69.1 °F 52% 30.20 in - Calm Calm - N/A   Unknown
12:54 PM 89.1 °F 91.3 °F 66.0 °F 46% 30.19 in - Calm Calm - N/A   Unknown
1:54 PM 88.0 °F 90.7 °F 66.9 °F 49% 30.18 in - NNE 4.6 mph - N/A   Unknown
2:54 PM 91.9 °F 95.4 °F 66.9 °F 44% 30.17 in - NNW 3.5 mph - N/A   Unknown
3:54 PM 93.0 °F 97.4 °F 68.0 °F 44% 30.15 in - North 3.5 mph - N/A   Unknown
4:54 PM 91.0 °F 95.2 °F 68.0 °F 47% 30.15 in - Calm Calm - N/A   Unknown
5:54 PM 91.9 °F 96.9 °F 69.1 °F 47% 30.14 in - Calm Calm - N/A   Unknown
6:54 PM 84.9 °F 90.1 °F 71.1 °F 63% 30.15 in - Calm Calm - N/A   Unknown
7:54 PM 82.0 °F 87.4 °F 73.0 °F 74% 30.16 in - Calm Calm - N/A   Unknown
9:54 PM 75.0 °F - 72.0 °F 90% 30.19 in - Calm Calm - N/A   Unknown
10:54 PM 73.9 °F - 71.1 °F 91% 30.19 in - Calm Calm - N/A   Unknown
11:54 PM 73.0 °F - 70.0 °F 90% 30.18 in - Calm Calm - N/A   Unknown